Torna al catalogo

FENGYUN 1C DEB

AttivoSSO
NORAD 37447·DEBRIS·🇨🇳 China

Lanciato May 10, 1999 da Taiyuan Satellite Launch Center

Loading…

Prossimi Passaggi (prossime 24 ore)

TLE

AggiornatoSource: Space-Track

Epoca: Sep 12, 2026, 09:23 UTC

1 37447U 99025EHR 26255.39165359  .00000810  00000-0  40686-3 0  9997
2 37447  98.7636 317.2142 0039680 164.4991 195.7409 14.18893706673408

Traccia FENGYUN 1C DEB in tempo reale con AllMySat

Download on the App Store